Carlsbad, CA

11:26 AM PDT on August 28, 2016 (GMT -0700)
McClellan-Palomar

Weather History for KCRQ - March, 2014

Change the Weather History Date:

Thursday, March 27, 2014

  Actual Average Record
Temperature  
Mean Temperature 58 °F -  
Max Temperature 63 °F 60 °F 82 °F (2015)
Min Temperature 54 °F 49 °F 48 °F (2002)
Degree Days  
Heating Degree Days 6    
Growing Degree Days 8 (Base 50)    
Moisture  
Dew Point 48 °F    
Average Humidity 68    
Maximum Humidity 82    
Minimum Humidity 55    
Precipitation  
Precipitation 0.00 in - - ()
Sea Level Pressure  
Sea Level Pressure 30.04 in    
Wind  
Wind Speed 5 mph (West)    
Max Wind Speed 15 mph    
Max Gust Speed 21 mph    
Visibility 10 miles    
Events Rain    
Averages and records for this station are not official NWS values.
T = Trace of Precipitation, MM = Missing Value Source: NWS Daily Summary

Daily Weather History Graph

Daily Weather History Graph

Search for Another Location

Airport or City:

Trip Planner

Search our weather history database for the weather conditions in past years. The results will help you decide how hot, cold, wet, or windy it might be!

Date:

Astronomy

Mar. 27, 2014 Rise Set
Actual Time 6:43 AM PDT 7:05 PM PDT
Civil Twilight 6:18 AM PDT 7:30 PM PDT
Nautical Twilight 5:49 AM PDT 7:59 PM PDT
Astronomical Twilight 5:20 AM PDT 8:29 PM PDT
Moon 4:27 AM PDT (3/27) 4:07 PM PDT (3/27)
Length of Visible Light 13h 12m
Length of Day
12h 22m
Waning Crescent, 12% of the Moon is Illuminated
Mar 27
Waning Crescent
Mar 30
New
Apr 7
First Quarter
Apr 15
Full
Apr 22
Last Quarter

Hourly Weather History & Observations

Time (PDT) Temp. Dew Point Humidity Pressure Visibility Wind Dir Wind Speed Gust Speed Precip Events Conditions
12:18 AM 57.2 °F 51.8 °F 82% 29.99 in 10.0 mi Calm Calm - N/A   Mostly Cloudy
12:50 AM 57.2 °F 51.8 °F 82% 29.99 in 10.0 mi West 6.9 mph - N/A   Scattered Clouds
12:53 AM 57.9 °F 51.1 °F 78% 29.99 in 10.0 mi West 8.1 mph - N/A   Scattered Clouds
1:53 AM 57.9 °F 50.0 °F 75% 29.99 in 10.0 mi West 6.9 mph - 0.00 in   Scattered Clouds
2:32 AM 57.2 °F 51.8 °F 82% 29.98 in 10.0 mi WNW 4.6 mph - 0.00 in Rain Light Rain
2:50 AM 57.2 °F 50.0 °F 77% 29.99 in 10.0 mi NW 3.5 mph - 0.00 in   Scattered Clouds
2:53 AM 57.0 °F 50.0 °F 77% 29.98 in 10.0 mi WNW 4.6 mph - 0.00 in   Scattered Clouds
3:53 AM 55.9 °F 50.0 °F 80% 29.98 in 10.0 mi Calm Calm - N/A   Mostly Cloudy
4:07 AM 55.4 °F 50.0 °F 82% 29.98 in 10.0 mi Calm Calm - 0.00 in Rain Light Rain
4:27 AM 55.4 °F 50.0 °F 82% 29.98 in 10.0 mi Variable 3.5 mph - 0.00 in   Scattered Clouds
4:50 AM 57.2 °F 48.2 °F 72% 29.99 in 10.0 mi Calm Calm - 0.00 in   Mostly Cloudy
4:53 AM 57.0 °F 48.0 °F 72% 29.99 in 10.0 mi Calm Calm - 0.00 in   Mostly Cloudy
5:11 AM 55.4 °F 48.2 °F 77% 29.99 in 10.0 mi Variable 3.5 mph - N/A   Partly Cloudy
5:53 AM 55.0 °F 46.0 °F 72% 29.99 in 10.0 mi Calm Calm - N/A   Scattered Clouds
6:53 AM 54.0 °F 46.9 °F 77% 30.00 in 10.0 mi Calm Calm - N/A   Mostly Cloudy
7:53 AM 55.9 °F 48.0 °F 75% 30.02 in 10.0 mi Calm Calm - N/A   Mostly Cloudy
8:00 AM 57.2 °F 48.2 °F 72% 30.03 in 10.0 mi Calm Calm - N/A   Overcast
8:38 AM 57.2 °F 46.4 °F 67% 30.04 in 10.0 mi West 3.5 mph - N/A   Partly Cloudy
8:50 AM 57.2 °F 46.4 °F 67% 30.04 in 10.0 mi WSW 9.2 mph - N/A   Mostly Cloudy
8:53 AM 57.9 °F 46.9 °F 67% 30.04 in 10.0 mi WSW 8.1 mph - N/A   Mostly Cloudy
9:07 AM 59.0 °F 48.2 °F 67% 30.05 in 10.0 mi West 10.4 mph 16.1 mph N/A   Mostly Cloudy
9:17 AM 59.0 °F 46.4 °F 63% 30.05 in 10.0 mi WSW 9.2 mph - N/A   Mostly Cloudy
9:53 AM 59.0 °F 46.0 °F 62% 30.06 in 10.0 mi West 9.2 mph - N/A   Mostly Cloudy
10:53 AM 61.0 °F 46.9 °F 60% 30.06 in 10.0 mi West 9.2 mph 17.3 mph N/A   Mostly Cloudy
11:53 AM 62.1 °F 46.9 °F 58% 30.08 in 10.0 mi SW 10.4 mph - N/A   Mostly Cloudy
12:08 PM 62.6 °F 46.4 °F 55% 30.09 in 10.0 mi West 8.1 mph 17.3 mph N/A   Mostly Cloudy
12:20 PM 62.6 °F 46.4 °F 55% 30.08 in 10.0 mi WSW 12.7 mph 18.4 mph N/A   Mostly Cloudy
12:27 PM 60.8 °F 46.4 °F 59% 30.08 in 10.0 mi SW 9.2 mph 18.4 mph N/A   Scattered Clouds
12:53 PM 63.0 °F 48.0 °F 58% 30.08 in 10.0 mi West 11.5 mph 19.6 mph N/A   Scattered Clouds
1:53 PM 63.0 °F 48.0 °F 58% 30.07 in 10.0 mi West 10.4 mph 19.6 mph N/A   Scattered Clouds
2:12 PM 62.6 °F 48.2 °F 59% 30.07 in 10.0 mi West 8.1 mph 17.3 mph N/A   Mostly Cloudy
2:26 PM 62.6 °F 48.2 °F 59% 30.07 in 10.0 mi WSW 11.5 mph 19.6 mph N/A   Mostly Cloudy
2:43 PM 60.8 °F 48.2 °F 63% 30.06 in 10.0 mi West 9.2 mph - N/A   Mostly Cloudy
2:53 PM 62.1 °F 48.0 °F 60% 30.06 in 10.0 mi WSW 12.7 mph - N/A   Mostly Cloudy
3:09 PM 62.6 °F 48.2 °F 59% 30.06 in 10.0 mi WSW 15.0 mph 20.7 mph N/A   Mostly Cloudy
3:53 PM 62.1 °F 48.9 °F 62% 30.05 in 10.0 mi West 12.7 mph 20.7 mph N/A   Scattered Clouds
4:23 PM 60.8 °F 48.2 °F 63% 30.05 in 10.0 mi West 9.2 mph 17.3 mph N/A   Mostly Cloudy
4:34 PM 60.8 °F 48.2 °F 63% 30.05 in 10.0 mi Variable 5.8 mph - N/A   Scattered Clouds
4:43 PM 62.6 °F 48.2 °F 59% 30.04 in 10.0 mi West 10.4 mph 17.3 mph N/A   Mostly Cloudy
4:53 PM 62.1 °F 48.0 °F 60% 30.04 in 10.0 mi WSW 13.8 mph - N/A   Scattered Clouds
5:02 PM 60.8 °F 48.2 °F 63% 30.04 in 10.0 mi WSW 11.5 mph 17.3 mph N/A   Mostly Cloudy
5:18 PM 60.8 °F 48.2 °F 63% 30.04 in 10.0 mi WSW 11.5 mph - N/A   Scattered Clouds
5:53 PM 60.1 °F 46.9 °F 62% 30.05 in 10.0 mi West 10.4 mph 17.3 mph N/A   Scattered Clouds
6:53 PM 59.0 °F 48.0 °F 67% 30.04 in 10.0 mi West 4.6 mph - N/A   Partly Cloudy
7:53 PM 57.9 °F 48.0 °F 70% 30.05 in 10.0 mi Calm Calm - N/A   Clear
8:53 PM 57.9 °F 46.9 °F 67% 30.06 in 10.0 mi Calm Calm - N/A   Clear
9:53 PM 57.0 °F 48.0 °F 72% 30.09 in 10.0 mi Calm Calm - N/A   Clear
10:53 PM 55.0 °F 46.9 °F 74% 30.09 in 10.0 mi East 3.5 mph - N/A   Clear
11:53 PM 54.0 °F 46.9 °F 77% 30.10 in 10.0 mi Calm Calm - N/A   Clear